[[{"header":{"parameterUnit":"m.s-1","parameterCategory":1,"la1":30.2991,"la2":30.254,"lo1":-89.0895,"lo2":-89.0444,"dy":0.0017,"dx":0.0017,"nx":28,"ny":28,"refTime":"2023-09-29T03:00:00:Z","depth":0,"parameterNumber":2,"parameterNumberName":"U-component_of_WINDS"},"data":[0,0,0,0,0,0,0,0,0,0,0,0,0,0,0,0,0,0,0,0,0,0,0,0,0,0,0,0,0,0,0,0,0,0,0,0,0,0,0,0,0,0,0,0,0,0,0,0,0,0,0,0,0,0,0,0,0,0,-1.7631,-1.7632,0,-1.7745,-1.7746,-1.7748,-1.7693,-1.769,-1.7687,-1.7684,-1.7806,-1.7812,-1.7818,0,0,0,0,0,0,0,0,0,0,0,0,0,-1.7369,-1.7374,-1.7631,-1.7632,-1.7633,-1.7745,-1.7746,-1.7748,-1.7693,-1.769,-1.7686,-1.7683,-1.7804,-1.7812,-1.7819,0,0,0,0,0,0,0,0,0,0,0,0,0,-1.7483,-1.7376,-1.763,-1.762,-1.762,-1.7744,-1.7746,-1.7748,-1.7694,-1.769,-1.7685,-1.7681,-1.7802,-1.7811,-1.782,-1.7963,0,0,-1.7847,-1.7851,0,0,0,0,0,0,0,0,-1.7477,-1.7493,-1.762,-1.7621,-1.7621,-1.77,-1.7699,-1.7821,-1.7695,-1.7666,-1.7684,-1.7679,-1.7775,-1.7786,-1.7817,-1.7969,-1.7974,-1.7848,-1.7853,-1.7857,-1.786,0,0,0,0,0,0,0,-1.7469,-1.7488,-1.7676,-1.7622,-1.7622,-1.761,-1.7622,-1.7722,-1.7744,-1.7668,-1.7665,-1.7679,-1.7774,-1.7809,-1.782,-1.7976,-1.7848,-1.7856,-1.7861,-1.7865,-1.8252,-1.8257,0,0,0,0,0,0,-1.7461,-1.7482,-1.7672,-1.7679,-1.7536,-1.7619,-1.7631,-1.7679,-1.7743,-1.7748,-1.7682,-1.7676,-1.7795,-1.7809,-1.7824,-1.7997,-1.7857,-1.7866,-1.7871,-1.8247,-1.8253,-1.8259,0,0,0,0,0,0,-1.7456,-1.7478,-1.7668,-1.758,-1.7603,-1.7628,-1.7682,-1.7684,-1.7718,-1.7753,-1.7757,-1.7713,-1.7793,-1.7811,-1.7929,-1.8001,-1.787,-1.7878,-1.8242,-1.8249,-1.8256,-1.8345,0,0,0,0,0,0,-1.7448,-1.7477,-1.7531,-1.7581,-1.7607,-1.777,-1.7686,-1.7689,-1.7733,-1.7725,-1.7783,-1.7788,-1.779,-1.7916,-1.7938,-1.8011,-1.7885,-1.8235,-1.8245,-1.8254,-1.8336,-1.8354,-1.837,0,0,0,0,0,-1.7439,-1.7552,-1.7534,-1.7557,-1.7675,-1.7774,-1.779,-1.7788,-1.7739,-1.7794,-1.7817,-1.7787,-1.7988,-1.7928,-1.7953,-1.8029,-1.8231,-1.8242,-1.8253,-1.8328,-1.8351,-1.837,0,0,0,0,0,0,-1.7512,-1.7559,-1.7539,-1.7671,-1.7719,-1.7765,-1.7835,-1.7812,-1.7876,-1.7867,-1.7864,-1.7877,-1.8,-1.8026,-1.7958,-1.8172,-1.8102,-1.8119,-1.8151,-1.8173,-1.819,-1.8182,-1.7892,0,0,0,0,0,-1.7543,-1.7618,-1.7655,-1.7768,-1.7793,-1.781,-1.7853,-1.7847,-1.7897,-1.7918,-1.7949,-1.8,-1.8075,-1.8125,-1.8196,-1.8338,-1.8351,-1.8403,-1.842,-1.8434,-1.8449,-1.8528,-1.8552,-1.8295,-1.8295,-1.8295,0,0,-1.7609,-1.7643,-1.7691,-1.7784,-1.782,-1.79,-1.7827,-1.7914,-1.7974,-1.7932,-1.8045,-1.8069,-1.8126,-1.8257,-1.8316,-1.8283,-1.8522,-1.8448,-1.8459,-1.8467,-1.8542,-1.8566,-1.8588,-1.8302,-1.8301,-1.83,0,0,-1.777,-1.7803,-1.7901,-1.7938,-1.7994,-1.8004,-1.8027,-1.8076,-1.8091,-1.8203,-1.8174,-1.8245,-1.8373,-1.8415,-1.8454,-1.8629,-1.8605,-1.8652,-1.8744,-1.8821,-1.8841,-1.8859,-1.8924,-1.8947,-1.8666,-1.8667,-1.8667,0,-1.7846,-1.7962,-1.7955,-1.8044,-1.8087,-1.8049,-1.815,-1.8187,-1.8264,-1.8295,-1.8255,-1.8416,-1.8451,-1.8592,-1.8635,-1.8666,-1.8695,-1.8647,-1.8838,-1.8856,-1.8873,-1.8935,-1.8959,-1.8672,-1.8672,-1.8671,-1.8671,0,-1.8054,-1.8135,-1.8208,-1.8281,-1.8331,-1.8426,-1.8434,-1.8486,-1.8475,-1.849,-1.8606,-1.8647,-1.8726,-1.8758,-1.875,-1.8898,-1.8876,-1.8837,-1.8768,-1.8903,-1.8961,-1.8985,-1.868,-1.8678,-1.8677,-1.8675,0,0,-1.8267,-1.8333,-1.836,-1.8393,-1.845,-1.8514,-1.8607,-1.8682,-1.8728,-1.8781,-1.886,-1.8969,-1.8934,-1.8977,-1.8973,-1.9039,-1.9178,-1.8993,-1.8994,-1.9028,-1.9347,-1.9378,-1.9405,-1.9161,-1.9165,-1.9169,-1.9343,0,-1.8434,-1.8596,-1.8591,-1.8742,-1.8818,-1.8783,-1.8864,-1.8909,-1.8925,-1.8993,-1.901,-1.9089,-1.9034,-1.9061,-1.9125,-1.9148,-1.9243,-1.9134,-1.9237,-1.9241,-1.9227,-1.9435,-1.9468,-1.9631,-1.9366,-1.9369,-1.9372,0,-1.8651,-1.871,-1.8869,-1.8914,-1.8946,-1.9019,-1.9088,-1.9152,-1.9203,-1.9209,-1.9257,-1.9242,-1.9338,-1.9263,-1.9397,-1.9323,-1.9364,-1.9382,-1.9388,-1.94,-1.9317,-1.9456,-1.9683,-1.9709,-1.9407,-1.9405,-1.9402,0,-1.8794,-1.8913,-1.9023,-1.9052,-1.9108,-1.916,-1.9186,-1.9231,-1.9277,-1.9337,-1.9367,-1.9438,-1.9478,-1.9534,-1.9539,-1.9484,-1.9674,-1.96,-1.9685,-1.9685,-1.973,-1.9727,-1.9969,-1.9751,-1.9751,-1.975,-1.975,0,-1.8983,-1.9082,-1.9088,-1.9157,-1.9266,-1.926,-1.937,-1.9391,-1.9431,-1.9504,-1.9477,-1.9547,-1.9547,-1.9619,-1.9623,-1.9734,-1.9752,-1.9762,-1.9762,-1.9766,-1.9765,-1.9795,-1.9785,-1.9757,-1.9755,-1.9754,-1.9753,0,-1.9163,-1.917,-1.9289,-1.9331,-1.9344,-1.9423,-1.946,-1.9526,-1.9537,-1.963,-1.9652,-1.9672,-1.9754,-1.9763,-1.9859,-1.9862,-1.9997,-1.9984,-1.998,-1.9979,-2.0065,-2.0058,-2.0338,-2.0375,-2.013,-2.0132,-2.0134,0,-1.9285,-1.936,-1.9409,-1.9455,-1.9484,-1.9558,-1.9604,-1.96,-1.9649,-1.9711,-1.977,-1.9849,-1.9913,-2.0046,-2.007,-2.0144,-2.0135,-2.0227,-2.0146,-2.0147,-2.0139,-2.0136,-2.0145,-2.0244,-2.0247,-2.0249,-2.0251,0,-1.9501,-1.95,-1.9566,-1.9634,-1.9689,-1.9743,-1.9793,-1.9832,-1.9835,-1.9891,-1.9974,-2.0023,-2.012,-2.02,-2.0272,-2.0301,-2.0278,-2.0276,-2.03,-2.0306,-2.0302,-2.0308,-2.0026,-2.027,-2.0268,-2.0267,-2.0266,-2.0265,-1.9658,-1.9723,-1.9768,-1.9842,-1.9879,-1.9926,-1.999,-2.0009,-2.0077,-2.0155,-2.0148,-2.0241,-2.0289,-2.0383,-2.0417,-2.049,-2.0459,-2.0494,-2.0503,-2.0513,-2.0522,-2.0287,-2.0503,-2.0502,-2.0502,-2.0501,-2.0501,0,-1.9875,-1.9901,-1.9969,-2.0039,-2.0098,-2.0067,-2.0121,-2.0173,-2.0254,-2.03,-2.0362,-2.0458,-2.0535,-2.0564,-2.0639,-2.0693,-2.0684,-2.0713,-2.0711,-2.0718,-2.0544,-2.0517,-2.0719,-2.0719,-2.0719,-2.0718,-2.0718,-2.0718,-1.9995,-2.0104,-2.0109,-2.0236,-2.0262,-2.0351,-2.0384,-2.0428,-2.0465,-2.0572,-2.0635,-2.0652,-2.0692,-2.077,-2.084,-2.0847,-2.0877,-2.0911,-2.0914,-2.0752,-2.073,-2.0709,-2.0684,-2.0917,-2.0918,-2.1082,-2.1084,-2.1085]},{"header":{"parameterUnit":"m.s-1","parameterCategory":1,"la1":30.2991,"la2":30.254,"lo1":-89.0895,"lo2":-89.0444,"dy":0.0017,"dx":0.0017,"nx":28,"ny":28,"refTime":"2023-09-29T03:00:00:Z","depth":0,"parameterNumber":3,"parameterNumberName":"V-component_of_WINDS"},"data":[0,0,0,0,0,0,0,0,0,0,0,0,0,0,0,0,0,0,0,0,0,0,0,0,0,0,0,0,0,0,0,0,0,0,0,0,0,0,0,0,0,0,0,0,0,0,0,0,0,0,0,0,0,0,0,0,0,0,-2.434,-2.434,0,-2.4353,-2.4353,-2.4353,-2.4333,-2.4332,-2.4331,-2.433,-2.4342,-2.4343,-2.4344,0,0,0,0,0,0,0,0,0,0,0,0,0,-2.4296,-2.4296,-2.434,-2.434,-2.434,-2.4353,-2.4353,-2.4353,-2.4333,-2.4332,-2.4331,-2.433,-2.4342,-2.4343,-2.4344,0,0,0,0,0,0,0,0,0,0,0,0,0,-2.4312,-2.4297,-2.434,-2.4332,-2.4331,-2.4353,-2.4353,-2.4353,-2.4333,-2.4332,-2.4331,-2.433,-2.4341,-2.4343,-2.4344,-2.4375,0,0,-2.4349,-2.4349,0,0,0,0,0,0,0,0,-2.4311,-2.4314,-2.4333,-2.4332,-2.4332,-2.434,-2.4342,-2.436,-2.4333,-2.4332,-2.433,-2.4329,-2.4342,-2.4344,-2.4348,-2.4375,-2.4376,-2.4349,-2.435,-2.435,-2.4351,0,0,0,0,0,0,0,-2.431,-2.4313,-2.4345,-2.4333,-2.4332,-2.4327,-2.4328,-2.4345,-2.4343,-2.4332,-2.4331,-2.4333,-2.4342,-2.4347,-2.4348,-2.4376,-2.4349,-2.435,-2.4351,-2.4352,-2.4426,-2.4427,0,0,0,0,0,0,-2.431,-2.4312,-2.4345,-2.4346,-2.4319,-2.4328,-2.433,-2.4338,-2.4343,-2.4342,-2.4333,-2.4332,-2.4345,-2.4347,-2.4349,-2.4383,-2.435,-2.4352,-2.4353,-2.4425,-2.4427,-2.4428,0,0,0,0,0,0,-2.4309,-2.4313,-2.4344,-2.4329,-2.4332,-2.433,-2.434,-2.4339,-2.4344,-2.4344,-2.4343,-2.4339,-2.4344,-2.4347,-2.4368,-2.4383,-2.4352,-2.4354,-2.4424,-2.4426,-2.4427,-2.4453,0,0,0,0,0,0,-2.4308,-2.4313,-2.4325,-2.4329,-2.4333,-2.4364,-2.4341,-2.434,-2.4347,-2.4345,-2.4349,-2.4349,-2.4344,-2.4366,-2.4369,-2.4385,-2.4355,-2.4422,-2.4425,-2.4427,-2.445,-2.4455,-2.4459,0,0,0,0,0,-2.4307,-2.4332,-2.4326,-2.433,-2.4348,-2.4365,-2.4367,-2.4361,-2.4349,-2.436,-2.4359,-2.4349,-2.4381,-2.4368,-2.4372,-2.4388,-2.4421,-2.4424,-2.4426,-2.4449,-2.4454,-2.4459,0,0,0,0,0,0,-2.433,-2.4332,-2.4326,-2.4353,-2.4359,-2.4361,-2.4376,-2.4367,-2.4377,-2.4374,-2.4366,-2.4367,-2.439,-2.4391,-2.4377,-2.4417,-2.4399,-2.4403,-2.4415,-2.442,-2.4424,-2.4423,-2.4356,0,0,0,0,0,-2.4338,-2.4352,-2.4353,-2.4377,-2.4381,-2.4378,-2.4385,-2.438,-2.4385,-2.4388,-2.4389,-2.4394,-2.4405,-2.4413,-2.4423,-2.4451,-2.4451,-2.4464,-2.4468,-2.4471,-2.4474,-2.4487,-2.4493,-2.4436,-2.4436,-2.4436,0,0,-2.4355,-2.4358,-2.4368,-2.4382,-2.4386,-2.44,-2.438,-2.4396,-2.4406,-2.439,-2.441,-2.4411,-2.4416,-2.444,-2.4451,-2.4442,-2.449,-2.4475,-2.4477,-2.4478,-2.449,-2.4496,-2.45,-2.4438,-2.4437,-2.4437,0,0,-2.4393,-2.4397,-2.4417,-2.4421,-2.4428,-2.4426,-2.443,-2.4434,-2.4434,-2.4454,-2.4442,-2.4454,-2.4474,-2.4478,-2.4482,-2.4521,-2.4511,-2.4525,-2.4546,-2.456,-2.4564,-2.4568,-2.458,-2.4585,-2.4528,-2.4528,-2.4528,0,-2.4413,-2.4434,-2.4428,-2.4444,-2.445,-2.4437,-2.4456,-2.4461,-2.447,-2.4474,-2.4465,-2.4489,-2.4492,-2.4516,-2.4525,-2.453,-2.4534,-2.4524,-2.4564,-2.4568,-2.4571,-2.4583,-2.4588,-2.4529,-2.4529,-2.4529,-2.4529,0,-2.4458,-2.4472,-2.4487,-2.4497,-2.4505,-2.4522,-2.4518,-2.4527,-2.4521,-2.452,-2.454,-2.4543,-2.4553,-2.4559,-2.4553,-2.4582,-2.4576,-2.4565,-2.4547,-2.4578,-2.4589,-2.4594,-2.4532,-2.4531,-2.4531,-2.453,0,0,-2.451,-2.4515,-2.4521,-2.4524,-2.453,-2.4541,-2.4558,-2.4568,-2.4575,-2.4582,-2.4595,-2.4612,-2.4602,-2.4607,-2.4602,-2.4614,-2.4642,-2.4601,-2.4601,-2.4608,-2.4673,-2.4679,-2.4685,-2.4636,-2.4637,-2.4638,-2.4672,0,-2.4546,-2.4575,-2.457,-2.4598,-2.4611,-2.4598,-2.4613,-2.4617,-2.4616,-2.4627,-2.4625,-2.4637,-2.4624,-2.4627,-2.4638,-2.4637,-2.4655,-2.4634,-2.4647,-2.4648,-2.4645,-2.4691,-2.4698,-2.473,-2.4676,-2.4677,-2.4677,0,-2.4593,-2.4601,-2.463,-2.4633,-2.4638,-2.4651,-2.4659,-2.467,-2.4674,-2.4673,-2.4679,-2.4671,-2.4687,-2.467,-2.4691,-2.4677,-2.4682,-2.4682,-2.4683,-2.4683,-2.4663,-2.469,-2.474,-2.4744,-2.4684,-2.4684,-2.4683,0,-2.4625,-2.4644,-2.4664,-2.4667,-2.4672,-2.4681,-2.4683,-2.4687,-2.4693,-2.47,-2.4704,-2.4713,-2.4718,-2.4725,-2.472,-2.4708,-2.4741,-2.4724,-2.4739,-2.4739,-2.4745,-2.4745,-2.4795,-2.4751,-2.4751,-2.4751,-2.4751,0,-2.4666,-2.4684,-2.4678,-2.469,-2.471,-2.4704,-2.4723,-2.4723,-2.4727,-2.4738,-2.4728,-2.4738,-2.4732,-2.4742,-2.4738,-2.4755,-2.4757,-2.4756,-2.4754,-2.4756,-2.4756,-2.4758,-2.4755,-2.4752,-2.4752,-2.4752,-2.4752,0,-2.4705,-2.4703,-2.4723,-2.4725,-2.4726,-2.474,-2.4742,-2.4752,-2.4751,-2.4765,-2.4768,-2.4766,-2.4776,-2.4772,-2.4784,-2.4782,-2.4803,-2.4799,-2.4801,-2.48,-2.4815,-2.4813,-2.4867,-2.4873,-2.4827,-2.4827,-2.4827,0,-2.4731,-2.4744,-2.4748,-2.4755,-2.4757,-2.4769,-2.4775,-2.4769,-2.4776,-2.4782,-2.4792,-2.4802,-2.4809,-2.4827,-2.4826,-2.4835,-2.483,-2.4849,-2.4832,-2.4832,-2.4829,-2.4827,-2.4828,-2.4852,-2.4852,-2.4853,-2.4853,0,-2.4775,-2.4773,-2.4782,-2.4791,-2.4799,-2.4806,-2.4812,-2.4818,-2.4812,-2.482,-2.4831,-2.4837,-2.4849,-2.4859,-2.4866,-2.4868,-2.4859,-2.4859,-2.4862,-2.4863,-2.4863,-2.4862,-2.4809,-2.4857,-2.4857,-2.4856,-2.4856,-2.4856,-2.4807,-2.4818,-2.4822,-2.4832,-2.4836,-2.4842,-2.4851,-2.4851,-2.486,-2.487,-2.4866,-2.4878,-2.4882,-2.4891,-2.4894,-2.4903,-2.4896,-2.4902,-2.4903,-2.4904,-2.4905,-2.4863,-2.4905,-2.4905,-2.4904,-2.4904,-2.4904,0,-2.485,-2.4852,-2.4861,-2.487,-2.4878,-2.487,-2.4875,-2.4882,-2.4894,-2.4898,-2.4906,-2.4918,-2.4927,-2.4927,-2.4935,-2.4943,-2.4939,-2.4945,-2.4944,-2.4944,-2.4912,-2.4907,-2.4948,-2.4948,-2.4948,-2.4948,-2.4948,-2.4948,-2.4873,-2.489,-2.4888,-2.4907,-2.4909,-2.4921,-2.4925,-2.4929,-2.4933,-2.4947,-2.4954,-2.4954,-2.4956,-2.4965,-2.4973,-2.4972,-2.4975,-2.4983,-2.4981,-2.4951,-2.4946,-2.4942,-2.4937,-2.4984,-2.4984,-2.5011,-2.5012,-2.5012]}]]